sat.trackr.live / text

‹ back to catalog

STARLINK-5722

NORAD 55610 · 2023-020AT

PAYLOAD ACTIVE UNKNOWN

§ Identity

Operator
Country
US
Launch date
2023-02-12
Launch site
AFETR
Launch vehicle
Mass (kg)
RCS (m²)

Purposes: comms

External: N2YO · Heavens-Above · Gunter

§ Orbital elements

Epoch: 2026-05-25T02:38:14.520192Z

Period
94.27 min
Inclination
43.0053°
Eccentricity
0.0001658
Mean motion
15.27575941 rev/d
Perigee alt
481.9 km
Apogee alt
484.2 km
Semi-major
6,861.2 km
B*
1.5313e-5
RAAN
282.9109°
Arg perigee
278.0091°
Mean anomaly
82.0572°
Rev number
18,072

§ Raw data

STARLINK-57221 55610U 23020AT  26145.10989028  .00000159  00000+0  15313-4 0  99902 55610  43.0053 282.9109 0001658 278.0091  82.0572 15.27575941180720

JSON: /api/v1/satellites/55610 · /tle

For live sub-satellite position, see the globe view (requires WebGL).

§ Visibility from observer

Set your observer location to see the next 7 days of passes ≥ 10°. The values pass through the URL so the page stays shareable.

No JS? Fill the form by hand. The geolocation button needs JavaScript.